Hourly Data Report for October 06, 2019

QUALICUM BEACH AIRPORT
BRITISH COLUMBIA
Current Station Operator: ECCC - MSC

49°20'14.000" N
124°23'38.000" W
58.20 m
1026562
71766
VOQ

Download Data

Hourly Data (October 2019)
Hourly Data Report for October 6, 2019
TIME
LST
Temp Definition
°C
Dew Point Definition
°C
Rel Hum Definition
%
Precip. Amount Definition
mm

Wind Dir Definition
10's deg

Wind Spd Definition
km/h
Visibility Definition
km
Stn Press Definition
kPa
Hmdx Definition


Wind Chill Definition


Weather Definition


00:00 5.7 5.0 95 0.0 23 3   102.28     LegendNANA
01:00 4.7 4.1 96 0.0 20 2   102.29     LegendNANA
02:00 4.0 3.5 97 0.0 0 1   102.28     LegendNANA
03:00 4.2 3.7 97 0.0 23 1   102.26     LegendNANA
04:00 5.2 4.7 96 0.0 24 1   102.24     LegendNANA
05:00 3.9 3.3 95 0.0 19 1   102.22     LegendNANA
06:00 3.9 3.3 96 0.0 22 1   102.20     LegendNANA
07:00 4.0 3.6 97 0.0 16 3   102.21     LegendNANA
08:00 6.1 5.5 96 0.0 21 3   102.16     LegendNANA
09:00 8.9 7.8 93 0.0 16 5   102.14     LegendNANA
10:00 11.0 8.4 84 0.0 15 4   102.13     LegendNANA
11:00 11.2 8.7 84 0.0 9 6   102.09     LegendNANA
12:00 11.2 8.9 85 0.0 8 8   102.04     LegendNANA
13:00 12.0 9.4 84 0.0 7 5   101.94     LegendNANA
14:00 11.4 9.4 87 0.0 8 4   101.86     LegendNANA
15:00 11.5 9.3 87 0.0 10 5   101.78     LegendNANA
16:00 11.4 9.5 88 0.0 13 5   101.72     LegendNANA
17:00 10.8 9.7 94 0.2 10 5   101.60     LegendNANA
18:00 10.4 9.5 95 0.3 11 2   101.54     LegendNANA
19:00 10.3 9.5 95 0.2 15 4   101.50     LegendNANA
20:00 10.2 9.5 95 0.1 13 5   101.41     LegendNANA
21:00 10.2 9.5 96 0.4 13 7   101.33     LegendNANA
22:00 10.3 9.5 95 0.4 15 2   101.29     LegendNANA
23:00 10.1 9.4 95 0.1 10 9   101.15     LegendNANA

Notes on Data Quality.

Legend

  • E = Estimated
  • M = Missing
  • NA = Not Available*
  • [empty] = Indicates an unobserved value
Date modified: